Location: Austin
(30.3000°N, 97.7500°W)
Time: 03:26:57
(UTC-06:00)

Cosmos 2297 Rocket - Pass Details

Date: 20 November 2023
Orbit: 838 x 844 km, 71.0° (Epoch: 04 December)

Event Time Altitude Azimuth Distance (km) Brightness Sun altitude
Rises 18:07:22 0° 189° (S) 3,373 5.7 -7.9°
Reaches altitude 10° 18:09:49 10° 186° (S) 2,443 4.9 -8.4°
Maximum altitude 18:15:20 61° 106° (ESE) 943 2.2 -9.6°
Drops below altitude 10° 18:20:53 10° 28° (NNE) 2,459 4.2 -10.7°
Enters shadow 18:23:04 - 25° (NNE) 3,287 4.9 -11.2°
